Time,TemperatureF,DewpointF,PressureIn,WindDirection,WindDirectionDegrees,WindSpeedMPH,WindSpeedGustMPH,Humidity,HourlyPrecipIn,Conditions,Clouds,dailyrainin,SoftwareType,DateUTC
2013-01-14 06:30:00,57.8,57.2,29.99,East,84,3.0,7.0,98,0.00,,,0.29,Wunderground v.1.15,2013-01-14 11:30:00,
2013-01-14 06:35:00,57.8,57.2,30.00,SW,224,3.0,7.0,98,0.00,,,0.29,Wunderground v.1.15,2013-01-14 11:35:00,
2013-01-14 06:40:00,57.8,57.2,29.99,West,280,3.0,7.0,98,0.00,,,0.29,Wunderground v.1.15,2013-01-14 11:40:00,
2013-01-14 06:45:00,57.8,57.2,30.00,ESE,121,3.0,7.0,98,0.00,,,0.29,Wunderground v.1.15,2013-01-14 11:45:00,
2013-01-14 07:05:00,57.8,57.2,30.00,ENE,58,5.0,5.0,98,0.00,,,0.29,Wunderground v.1.15,2013-01-14 12:05:00,
2013-01-14 07:10:00,57.8,57.2,30.00,SSE,167,5.0,7.0,98,0.00,,,0.29,Wunderground v.1.15,2013-01-14 12:10:00,
2013-01-14 07:15:00,57.8,57.2,30.00,East,86,4.0,8.0,98,0.00,,,0.29,Wunderground v.1.15,2013-01-14 12:15:00,
2013-01-14 07:20:00,57.8,57.2,30.00,East,96,5.0,8.0,98,0.00,,,0.29,Wunderground v.1.15,2013-01-14 12:20:00,
2013-01-14 07:25:00,57.8,57.2,30.00,East,101,6.0,6.0,98,0.00,,,0.29,Wunderground v.1.15,2013-01-14 12:25:00,
2013-01-14 07:30:00,57.8,57.2,30.00,ESE,122,6.0,7.0,98,0.00,,,0.29,Wunderground v.1.15,2013-01-14 12:30:00,
2013-01-14 07:35:00,57.8,57.2,30.01,SE,131,5.0,5.0,98,0.00,,,0.29,Wunderground v.1.15,2013-01-14 12:35:00,
2013-01-14 07:40:00,57.8,57.2,30.01,South,178,4.0,7.0,98,0.00,,,0.29,Wunderground v.1.15,2013-01-14 12:40:00,
2013-01-14 07:45:00,57.8,57.2,30.02,East,98,3.0,3.0,98,0.00,,,0.29,Wunderground v.1.15,2013-01-14 12:45:00,
2013-01-14 07:50:00,57.8,57.2,30.02,SE,125,2.0,7.0,98,0.00,,,0.29,Wunderground v.1.15,2013-01-14 12:50:00,
2013-01-14 07:55:00,57.8,57.2,30.02,SE,146,3.0,3.0,98,0.00,,,0.29,Wunderground v.1.15,2013-01-14 12:55:00,
2013-01-14 08:00:00,57.9,57.3,30.02,WSW,257,4.0,4.0,98,0.00,,,0.29,Wunderground v.1.15,2013-01-14 13:00:00,
2013-01-14 08:05:00,57.9,57.3,30.02,ENE,66,4.0,7.0,98,0.00,,,0.29,Wunderground v.1.15,2013-01-14 13:05:00,
2013-01-14 08:10:00,57.9,57.3,30.02,NE,56,4.0,4.0,98,0.00,,,0.29,Wunderground v.1.15,2013-01-14 13:10:00,
2013-01-14 08:15:00,57.9,57.3,30.01,SSE,156,3.0,6.0,98,0.00,,,0.29,Wunderground v.1.15,2013-01-14 13:15:00,
2013-01-14 08:20:00,57.8,57.2,30.00,ESE,104,4.0,7.0,98,0.00,,,0.29,Wunderground v.1.15,2013-01-14 13:20:00,
2013-01-14 08:25:00,57.9,57.3,30.02,SSE,149,4.0,7.0,98,0.00,,,0.30,Wunderground v.1.15,2013-01-14 13:25:00,
2013-01-14 08:30:00,57.9,57.3,30.03,SSE,149,4.0,4.0,98,0.00,,,0.30,Wunderground v.1.15,2013-01-14 13:30:00,
2013-01-14 08:35:00,57.9,57.3,30.03,ESE,120,4.0,7.0,98,0.00,,,0.30,Wunderground v.1.15,2013-01-14 13:35:00,
2013-01-14 08:40:00,57.9,57.3,30.03,ESE,108,5.0,5.0,98,0.00,,,0.30,Wunderground v.1.15,2013-01-14 13:40:00,
2013-01-14 08:45:00,57.9,57.3,30.03,East,86,4.0,7.0,98,0.00,,,0.30,Wunderground v.1.15,2013-01-14 13:45:00,
2013-01-14 08:50:00,57.9,57.3,30.03,SE,133,3.0,10.0,98,0.00,,,0.30,Wunderground v.1.15,2013-01-14 13:50:00,
2013-01-14 08:55:00,57.9,57.3,30.03,South,190,4.0,10.0,98,0.00,,,0.30,Wunderground v.1.15,2013-01-14 13:55:00,
2013-01-14 09:00:00,57.9,57.3,30.03,East,93,5.0,5.0,98,0.00,,,0.30,Wunderground v.1.15,2013-01-14 14:00:00,
2013-01-14 09:10:00,58.0,57.4,30.04,East,98,2.0,7.0,98,0.00,,,0.30,Wunderground v.1.15,2013-01-14 14:10:00,
2013-01-14 09:15:00,58.0,57.4,30.04,SE,125,4.0,7.0,98,0.00,,,0.31,Wunderground v.1.15,2013-01-14 14:15:00,
2013-01-14 09:20:00,57.9,57.3,30.04,SSE,160,5.0,5.0,98,0.14,,,0.32,Wunderground v.1.15,2013-01-14 14:20:00,
2013-01-14 09:25:00,58.0,57.4,30.04,East,83,3.0,6.0,98,0.07,,,0.32,Wunderground v.1.15,2013-01-14 14:25:00,
2013-01-14 09:30:00,58.0,57.4,30.04,ESE,105,3.0,7.0,98,0.05,,,0.32,Wunderground v.1.15,2013-01-14 14:30:00,
2013-01-14 09:35:00,58.0,57.4,30.04,ESE,114,3.0,7.0,98,0.00,,,0.32,Wunderground v.1.15,2013-01-14 14:35:00,
2013-01-14 09:40:00,58.0,57.4,30.04,ESE,105,3.0,3.0,98,0.00,,,0.33,Wunderground v.1.15,2013-01-14 14:40:00,
2013-01-14 09:45:00,58.0,57.4,30.05,ESE,118,3.0,4.0,98,0.10,,,0.34,Wunderground v.1.15,2013-01-14 14:45:00,
2013-01-14 09:50:00,58.0,57.4,30.05,SE,127,4.0,7.0,98,0.18,,,0.36,Wunderground v.1.15,2013-01-14 14:50:00,
2013-01-14 09:55:00,58.0,57.4,30.05,ESE,104,6.0,7.0,98,0.12,,,0.36,Wunderground v.1.15,2013-01-14 14:55:00,
2013-01-14 10:00:00,58.0,57.4,30.05,East,82,5.0,5.0,98,0.07,,,0.37,Wunderground v.1.15,2013-01-14 15:00:00,
2013-01-14 10:05:00,58.0,57.4,30.05,SE,129,4.0,7.0,98,0.12,,,0.38,Wunderground v.1.15,2013-01-14 15:05:00,
2013-01-14 10:10:00,58.0,57.4,30.05,ESE,108,4.0,4.0,98,0.11,,,0.39,Wunderground v.1.15,2013-01-14 15:10:00,
2013-01-14 10:15:00,58.0,57.4,30.05,East,79,5.0,5.0,98,0.09,,,0.39,Wunderground v.1.15,2013-01-14 15:15:00,
2013-01-14 10:20:00,58.0,57.4,30.04,East,101,4.0,4.0,98,0.08,,,0.40,Wunderground v.1.15,2013-01-14 15:20:00,
2013-01-14 10:25:00,58.0,57.4,30.05,SW,215,2.0,7.0,98,0.07,,,0.40,Wunderground v.1.15,2013-01-14 15:25:00,
2013-01-14 10:30:00,58.0,57.4,30.05,East,92,1.0,7.0,98,0.06,,,0.41,Wunderground v.1.15,2013-01-14 15:30:00,
2013-01-14 10:35:00,58.0,57.4,30.05,South,180,1.0,7.0,98,0.06,,,0.41,Wunderground v.1.15,2013-01-14 15:35:00,
2013-01-14 10:40:00,58.0,57.4,30.04,ESE,115,2.0,7.0,98,0.04,,,0.41,Wunderground v.1.15,2013-01-14 15:40:00,
2013-01-14 10:45:00,58.1,57.5,30.05,ESE,102,3.0,7.0,98,0.04,,,0.42,Wunderground v.1.15,2013-01-14 15:45:00,
2013-01-14 10:50:00,58.1,57.5,30.05,SSE,159,3.0,7.0,98,0.04,,,0.42,Wunderground v.1.15,2013-01-14 15:50:00,
2013-01-14 10:55:00,58.1,57.5,30.05,SSE,166,3.0,7.0,98,0.04,,,0.42,Wunderground v.1.15,2013-01-14 15:55:00,
2013-01-14 11:00:00,58.2,57.6,30.05,East,79,3.0,3.0,98,0.04,,,0.42,Wunderground v.1.15,2013-01-14 16:00:00,
2013-01-14 11:05:00,58.2,57.6,30.05,East,93,2.0,5.0,98,0.00,,,0.42,Wunderground v.1.15,2013-01-14 16:05:00,
2013-01-14 11:10:00,58.2,57.6,30.04,ESE,108,2.0,7.0,98,0.00,,,0.42,Wunderground v.1.15,2013-01-14 16:10:00,
2013-01-14 11:15:00,58.1,57.5,30.04,WSW,239,3.0,7.0,98,0.00,,,0.43,Wunderground v.1.15,2013-01-14 16:15:00,
2013-01-14 11:20:00,58.0,57.4,30.03,ESE,102,2.0,2.0,98,0.00,,,0.43,Wunderground v.1.15,2013-01-14 16:20:00,
2013-01-14 11:25:00,58.0,57.4,30.03,SE,129,2.0,3.0,98,0.00,,,0.43,Wunderground v.1.15,2013-01-14 16:25:00,
2013-01-14 11:30:00,58.0,57.4,30.03,West,266,2.0,2.0,98,0.00,,,0.44,Wunderground v.1.15,2013-01-14 16:30:00,
2013-01-14 11:35:00,56.9,56.1,30.03,North,354,1.0,7.0,97,0.00,,,0.44,Wunderground v.1.15,2013-01-14 16:35:00,
2013-01-14 11:40:00,57.0,56.4,30.02,East,82,1.0,7.0,98,0.00,,,0.44,Wunderground v.1.15,2013-01-14 16:40:00,
2013-01-14 11:50:00,57.3,56.7,30.02,East,99,0.0,7.0,98,0.00,,,0.44,Wunderground v.1.15,2013-01-14 16:50:00,
2013-01-14 11:55:00,57.6,57.0,30.01,South,170,1.0,7.0,98,0.00,,,0.44,Wunderground v.1.15,2013-01-14 16:55:00,
2013-01-14 12:00:00,57.6,57.0,30.01,ESE,108,1.0,1.0,98,0.00,,,0.44,Wunderground v.1.15,2013-01-14 17:00:00,
2013-01-14 12:05:00,57.6,57.0,30.01,ESE,108,1.0,7.0,98,0.00,,,0.44,Wunderground v.1.15,2013-01-14 17:05:00,
2013-01-14 12:10:00,57.6,57.0,30.00,WSW,248,1.0,7.0,98,0.00,,,0.44,Wunderground v.1.15,2013-01-14 17:10:00,
2013-01-14 12:15:00,57.4,56.8,30.00,West,265,1.0,7.0,98,0.00,,,0.44,Wunderground v.1.15,2013-01-14 17:15:00,
2013-01-14 12:20:00,56.7,55.9,30.00,NNW,337,1.0,7.0,97,0.00,,,0.44,Wunderground v.1.15,2013-01-14 17:20:00,
2013-01-14 12:25:00,55.9,55.1,30.00,SW,227,1.0,7.0,97,0.00,,,0.44,Wunderground v.1.15,2013-01-14 17:25:00,
2013-01-14 12:30:00,55.3,54.5,30.00,NNW,338,1.0,1.0,97,0.00,,,0.45,Wunderground v.1.15,2013-01-14 17:30:00,
2013-01-14 12:40:00,54.6,53.8,30.00,WNW,288,0.0,7.0,97,0.05,,,0.46,Wunderground v.1.15,2013-01-14 17:40:00,
2013-01-14 12:45:00,55.1,54.5,29.99,South,170,0.0,7.0,98,0.05,,,0.46,Wunderground v.1.15,2013-01-14 17:45:00,
2013-01-14 12:50:00,55.2,54.6,29.99,South,169,0.0,7.0,98,0.05,,,0.46,Wunderground v.1.15,2013-01-14 17:50:00,
2013-01-14 12:55:00,55.5,54.9,29.99,South,169,0.0,7.0,98,0.04,,,0.46,Wunderground v.1.15,2013-01-14 17:55:00,
2013-01-14 13:00:00,55.8,55.2,30.00,ESE,114,0.0,7.0,98,0.00,,,0.46,Wunderground v.1.15,2013-01-14 18:00:00,
2013-01-14 13:05:00,56.0,55.4,29.99,ENE,66,0.0,7.0,98,0.00,,,0.46,Wunderground v.1.15,2013-01-14 18:05:00,
2013-01-14 13:10:00,56.2,55.6,29.99,ESE,117,0.0,7.0,98,0.00,,,0.46,Wunderground v.1.15,2013-01-14 18:10:00,
2013-01-14 13:20:00,56.5,55.9,29.99,NNW,346,0.0,7.0,98,0.00,,,0.47,Wunderground v.1.15,2013-01-14 18:20:00,
2013-01-14 13:25:00,54.2,53.1,29.99,NNW,340,2.0,7.0,96,0.05,,,0.48,Wunderground v.1.15,2013-01-14 18:25:00,
2013-01-14 13:30:00,52.9,51.8,29.99,NW,321,3.0,3.0,96,0.14,,,0.49,Wunderground v.1.15,2013-01-14 18:30:00,
2013-01-14 13:35:00,52.2,51.1,29.99,NNW,330,2.0,7.0,96,0.16,,,0.50,Wunderground v.1.15,2013-01-14 18:35:00,
2013-01-14 13:40:00,51.8,51.0,29.99,NW,314,1.0,7.0,97,0.16,,,0.51,Wunderground v.1.15,2013-01-14 18:40:00,
2013-01-14 13:45:00,51.5,50.7,30.00,WNW,294,0.0,7.0,97,0.16,,,0.53,Wunderground v.1.15,2013-01-14 18:45:00,
2013-01-14 13:55:00,52.0,51.5,30.00,NE,51,0.0,7.0,98,0.09,,,0.55,Wunderground v.1.15,2013-01-14 18:55:00,
2013-01-14 14:00:00,51.7,51.2,30.00,NNW,335,1.0,7.0,98,0.10,,,0.55,Wunderground v.1.15,2013-01-14 19:00:00,
2013-01-14 14:05:00,50.9,50.1,30.00,NNW,345,2.0,7.0,97,0.10,,,0.56,Wunderground v.1.15,2013-01-14 19:05:00,
2013-01-14 14:10:00,56.8,56.2,30.03,SSW,203,4.0,4.0,98,0.00,,,0.84,Wunderground v.1.15,2013-01-14 19:10:00,
2013-01-14 17:00:00,56.8,56.2,30.03,SE,125,3.0,7.0,98,0.00,,,0.84,Wunderground v.1.15,2013-01-14 22:00:00,
2013-01-14 17:05:00,56.8,56.2,30.03,East,89,3.0,7.0,98,0.00,,,0.84,Wunderground v.1.15,2013-01-14 22:05:00,
2013-01-14 17:10:00,56.9,56.3,30.04,SSE,149,4.0,4.0,98,0.00,,,0.84,Wunderground v.1.15,2013-01-14 22:10:00,
2013-01-14 17:15:00,56.8,56.2,30.04,ESE,107,4.0,5.0,98,0.00,,,0.84,Wunderground v.1.15,2013-01-14 22:15:00,
2013-01-14 17:20:00,56.9,56.3,30.04,South,169,4.0,7.0,98,0.00,,,0.84,Wunderground v.1.15,2013-01-14 22:20:00,
2013-01-14 17:30:00,57.1,56.5,30.04,East,82,4.0,7.0,98,0.00,,,0.84,Wunderground v.1.15,2013-01-14 22:30:00,
2013-01-14 17:35:00,57.1,56.5,30.04,East,91,6.0,7.0,98,0.00,,,0.85,Wunderground v.1.15,2013-01-14 22:35:00,
2013-01-14 17:40:00,57.2,56.6,30.04,East,79,7.0,7.0,98,0.00,,,0.85,Wunderground v.1.15,2013-01-14 22:40:00,
2013-01-14 17:45:00,57.4,56.8,30.04,East,98,7.0,7.0,98,0.00,,,0.85,Wunderground v.1.15,2013-01-14 22:45:00,
2013-01-14 17:50:00,57.5,56.9,30.04,ENE,75,6.0,7.0,98,0.00,,,0.85,Wunderground v.1.15,2013-01-14 22:50:00,
2013-01-14 18:40:00,58.1,57.5,30.06,East,96,4.0,7.0,98,0.00,,,0.88,Wunderground v.1.15,2013-01-14 23:40:00,
2013-01-14 18:45:00,58.2,57.6,30.05,ESE,102,4.0,7.0,98,0.00,,,0.88,Wunderground v.1.15,2013-01-14 23:45:00,
2013-01-14 18:50:00,58.2,57.6,30.06,East,101,4.0,4.0,98,0.00,,,0.89,Wunderground v.1.15,2013-01-14 23:50:00,
2013-01-14 18:55:00,58.2,57.6,30.06,East,100,3.0,7.0,98,0.00,,,0.89,Wunderground v.1.15,2013-01-14 23:55:00,
2013-01-14 19:05:00,54.7,53.9,30.07,NNW,335,4.0,7.0,97,0.00,,,0.89,Wunderground v.1.15,2013-01-15 00:05:00,
2013-01-14 19:10:00,53.1,51.7,30.07,NW,312,3.0,7.0,95,0.00,,,0.89,Wunderground v.1.15,2013-01-15 00:10:00,
2013-01-14 19:15:00,51.8,50.7,30.08,NW,312,3.0,7.0,96,0.00,,,0.89,Wunderground v.1.15,2013-01-15 00:15:00,
2013-01-14 19:20:00,51.2,50.1,30.08,West,271,2.0,7.0,96,0.00,,,0.89,Wunderground v.1.15,2013-01-15 00:20:00,
2013-01-14 19:30:00,49.9,48.8,30.08,West,269,2.0,7.0,96,0.00,,,0.89,Wunderground v.1.15,2013-01-15 00:30:00,
2013-01-14 19:35:00,49.4,48.6,30.08,WNW,295,2.0,7.0,97,0.24,,,0.91,Wunderground v.1.15,2013-01-15 00:35:00,
2013-01-14 19:40:00,48.9,48.1,30.08,West,280,2.0,2.0,97,0.09,,,0.91,Wunderground v.1.15,2013-01-15 00:40:00,
2013-01-14 19:45:00,48.5,47.7,30.08,NW,316,2.0,7.0,97,0.06,,,0.92,Wunderground v.1.15,2013-01-15 00:45:00,